Year,Month,Day,Hour,Minute,Value (Times are PST for temperature in C)
2015,11,11,00,00,9.10
2015,11,11,00,01,9.10
2015,11,11,00,02,9.10
2015,11,11,00,03,9.20
2015,11,11,00,04,9.20
2015,11,11,00,05,9.30
2015,11,11,00,06,9.30
2015,11,11,00,07,9.40
2015,11,11,00,08,9.40
2015,11,11,00,09,9.40
2015,11,11,00,10,9.40
2015,11,11,00,11,9.40
2015,11,11,00,12,9.40
2015,11,11,00,13,9.40
2015,11,11,00,14,9.40
2015,11,11,00,15,9.40
2015,11,11,00,16,9.40
2015,11,11,00,17,9.30
2015,11,11,00,18,9.30
2015,11,11,00,19,9.30
2015,11,11,00,20,9.20
2015,11,11,00,21,9.20
2015,11,11,00,22,9.20
2015,11,11,00,23,9.10
2015,11,11,00,24,9.10
2015,11,11,00,25,9.10
2015,11,11,00,26,9.00
2015,11,11,00,27,9.00
2015,11,11,00,28,8.90
2015,11,11,00,29,8.90
2015,11,11,00,30,8.90
2015,11,11,00,31,8.90
2015,11,11,00,32,8.90
2015,11,11,00,33,9.00
2015,11,11,00,34,9.00
2015,11,11,00,35,9.00
2015,11,11,00,36,9.00
2015,11,11,00,37,9.00
2015,11,11,00,38,9.00
2015,11,11,00,39,9.00
2015,11,11,00,40,9.10
2015,11,11,00,41,9.10
2015,11,11,00,42,9.10
2015,11,11,00,43,9.20
2015,11,11,00,44,9.20
2015,11,11,00,45,9.20
2015,11,11,00,46,9.20
2015,11,11,00,47,9.30
2015,11,11,00,48,9.30
2015,11,11,00,49,9.30
2015,11,11,00,50,9.30
2015,11,11,00,51,9.30
2015,11,11,00,52,9.20
2015,11,11,00,53,9.20
2015,11,11,00,54,9.20
2015,11,11,00,55,9.20
2015,11,11,00,56,9.10
2015,11,11,00,57,9.10
2015,11,11,00,58,9.10
2015,11,11,00,59,9.10
2015,11,11,01,00,9.10
2015,11,11,01,01,9.10
2015,11,11,01,02,9.10
2015,11,11,01,03,9.10
2015,11,11,01,04,9.10
2015,11,11,01,05,9.10
2015,11,11,01,06,9.20
2015,11,11,01,07,9.20
2015,11,11,01,08,9.30
2015,11,11,01,09,9.30
2015,11,11,01,10,9.40
2015,11,11,01,11,9.40
2015,11,11,01,12,9.40
2015,11,11,01,13,9.40
2015,11,11,01,14,9.40
2015,11,11,01,15,9.40
2015,11,11,01,16,9.40
2015,11,11,01,17,9.40
2015,11,11,01,18,9.30
2015,11,11,01,19,9.30
2015,11,11,01,20,9.20
2015,11,11,01,21,9.10
2015,11,11,01,22,9.10
2015,11,11,01,23,9.10
2015,11,11,01,24,9.10
2015,11,11,01,25,9.20
2015,11,11,01,26,9.10
2015,11,11,01,27,9.10
2015,11,11,01,28,9.10
2015,11,11,01,29,9.10
2015,11,11,01,30,9.10
2015,11,11,01,31,9.00
2015,11,11,01,32,8.90
2015,11,11,01,33,8.90
2015,11,11,01,34,8.90
2015,11,11,01,35,8.80
2015,11,11,01,36,8.80
2015,11,11,01,37,8.70
2015,11,11,01,38,8.70
2015,11,11,01,39,8.60
2015,11,11,01,40,8.60
2015,11,11,01,41,8.50
2015,11,11,01,42,8.40
2015,11,11,01,43,8.40
2015,11,11,01,44,8.40
2015,11,11,01,45,8.30
2015,11,11,01,46,8.30
2015,11,11,01,47,8.30
2015,11,11,01,48,8.30
2015,11,11,01,49,8.30
2015,11,11,01,50,8.30
2015,11,11,01,51,8.30
2015,11,11,01,52,8.30
2015,11,11,01,53,8.30
2015,11,11,01,54,8.20
2015,11,11,01,55,8.20
2015,11,11,01,56,8.20
2015,11,11,01,57,8.20
2015,11,11,01,58,8.20
2015,11,11,01,59,8.20
2015,11,11,02,00,8.10
2015,11,11,02,01,8.10
2015,11,11,02,02,8.10
2015,11,11,02,03,8.00
2015,11,11,02,04,8.00
2015,11,11,02,05,7.90
2015,11,11,02,06,7.90
2015,11,11,02,07,7.90
2015,11,11,02,08,7.90
2015,11,11,02,09,7.80
2015,11,11,02,10,7.80
2015,11,11,02,11,7.80
2015,11,11,02,12,7.70
2015,11,11,02,13,7.70
2015,11,11,02,14,7.60
2015,11,11,02,15,7.50
2015,11,11,02,16,7.40
2015,11,11,02,17,7.20
2015,11,11,02,18,7.20
2015,11,11,02,19,7.10
2015,11,11,02,20,7.00
2015,11,11,02,21,6.90
2015,11,11,02,22,6.80
2015,11,11,02,23,6.70
2015,11,11,02,24,6.70
2015,11,11,02,25,6.60
2015,11,11,02,26,6.50
2015,11,11,02,27,6.50
2015,11,11,02,28,6.40
2015,11,11,02,29,6.40
2015,11,11,02,30,6.40
2015,11,11,02,31,6.30
2015,11,11,02,32,6.30
2015,11,11,02,33,6.20
2015,11,11,02,34,6.10
2015,11,11,02,35,6.00
2015,11,11,02,36,5.90
2015,11,11,02,37,5.80
2015,11,11,02,38,5.80
2015,11,11,02,39,5.70
2015,11,11,02,40,5.70
2015,11,11,02,41,5.60
2015,11,11,02,42,5.60
2015,11,11,02,43,5.50
2015,11,11,02,44,5.50
2015,11,11,02,45,5.40
2015,11,11,02,46,5.40
2015,11,11,02,47,5.40
2015,11,11,02,48,5.30
2015,11,11,02,49,5.30
2015,11,11,02,50,5.30
2015,11,11,02,51,5.20
2015,11,11,02,52,5.20
2015,11,11,02,53,5.20
2015,11,11,02,54,5.10
2015,11,11,02,55,5.10
2015,11,11,02,56,5.00
2015,11,11,02,57,5.00
2015,11,11,02,58,4.90
2015,11,11,02,59,4.90
2015,11,11,03,00,4.90
2015,11,11,03,01,4.80
2015,11,11,03,02,4.80
2015,11,11,03,03,4.70
2015,11,11,03,04,4.70
2015,11,11,03,05,4.60
2015,11,11,03,06,4.60
2015,11,11,03,07,4.60
2015,11,11,03,08,4.60
2015,11,11,03,09,4.50
2015,11,11,03,10,4.50
2015,11,11,03,11,4.40
2015,11,11,03,12,4.40
2015,11,11,03,13,4.40
2015,11,11,03,14,4.30
2015,11,11,03,15,4.30
2015,11,11,03,16,4.30
2015,11,11,03,17,4.20
2015,11,11,03,18,4.20
2015,11,11,03,19,4.20
2015,11,11,03,20,4.20
2015,11,11,03,21,4.20
2015,11,11,03,22,4.10
2015,11,11,03,23,4.20
2015,11,11,03,24,4.20
2015,11,11,03,25,4.20
2015,11,11,03,26,4.20
2015,11,11,03,27,4.20
2015,11,11,03,28,4.30
2015,11,11,03,29,4.30
2015,11,11,03,30,4.30
2015,11,11,03,31,4.30
2015,11,11,03,32,4.30
2015,11,11,03,33,4.30
2015,11,11,03,34,4.40
2015,11,11,03,35,4.40
2015,11,11,03,36,4.40
2015,11,11,03,37,4.30
2015,11,11,03,38,4.30
2015,11,11,03,39,4.30
2015,11,11,03,40,4.30
2015,11,11,03,41,4.30
2015,11,11,03,42,4.30
2015,11,11,03,43,4.20
2015,11,11,03,44,4.10
2015,11,11,03,45,4.10
2015,11,11,03,46,4.10
2015,11,11,03,47,4.10
2015,11,11,03,48,4.00
2015,11,11,03,49,4.00
2015,11,11,03,50,3.90
2015,11,11,03,51,3.90
2015,11,11,03,52,3.80
2015,11,11,03,53,3.80
2015,11,11,03,54,3.80
2015,11,11,03,55,3.70
2015,11,11,03,56,3.70
2015,11,11,03,57,3.70
2015,11,11,03,58,3.70
2015,11,11,03,59,3.60
2015,11,11,04,00,3.60
2015,11,11,04,01,3.60
2015,11,11,04,02,3.60
2015,11,11,04,03,3.60
2015,11,11,04,04,3.50
2015,11,11,04,05,3.50
2015,11,11,04,06,3.50
2015,11,11,04,07,3.50
2015,11,11,04,08,3.50
2015,11,11,04,09,3.50
2015,11,11,04,10,3.50
2015,11,11,04,11,3.50
2015,11,11,04,12,3.50
2015,11,11,04,13,3.50
2015,11,11,04,14,3.50
2015,11,11,04,15,3.50
2015,11,11,04,16,3.50
2015,11,11,04,17,3.50
2015,11,11,04,18,3.60
2015,11,11,04,19,3.60
2015,11,11,04,20,3.70
2015,11,11,04,21,3.70
2015,11,11,04,22,3.70
2015,11,11,04,23,3.80
2015,11,11,04,24,3.80
2015,11,11,04,25,3.90
2015,11,11,04,26,3.90
2015,11,11,04,27,3.90
2015,11,11,04,28,3.90
2015,11,11,04,29,3.90
2015,11,11,04,30,4.00
2015,11,11,04,31,4.10
2015,11,11,04,32,4.10
2015,11,11,04,33,4.20
2015,11,11,04,34,4.20
2015,11,11,04,35,4.30
2015,11,11,04,36,4.40
2015,11,11,04,37,4.50
2015,11,11,04,38,4.60
2015,11,11,04,39,4.70
2015,11,11,04,40,4.70
2015,11,11,04,41,4.70
2015,11,11,04,42,4.70
2015,11,11,04,43,4.60
2015,11,11,04,44,4.60
2015,11,11,04,45,4.60
2015,11,11,04,46,4.50
2015,11,11,04,47,4.50
2015,11,11,04,48,4.40
2015,11,11,04,49,4.30
2015,11,11,04,50,4.20
2015,11,11,04,51,4.20
2015,11,11,04,52,4.10
2015,11,11,04,53,4.10
2015,11,11,04,54,4.10
2015,11,11,04,55,4.00
2015,11,11,04,56,3.90
2015,11,11,04,57,3.90
2015,11,11,04,58,3.80
2015,11,11,04,59,3.80
2015,11,11,05,00,3.70
2015,11,11,05,01,3.70
2015,11,11,05,02,3.60
2015,11,11,05,03,3.60
2015,11,11,05,04,3.50
2015,11,11,05,05,3.50
2015,11,11,05,06,3.40
2015,11,11,05,07,3.40
2015,11,11,05,08,3.30
2015,11,11,05,09,3.30
2015,11,11,05,10,3.30
2015,11,11,05,11,3.30
2015,11,11,05,12,3.30
2015,11,11,05,13,3.40
2015,11,11,05,14,3.40
2015,11,11,05,15,3.50
2015,11,11,05,16,3.50
2015,11,11,05,17,3.60
2015,11,11,05,18,3.60
2015,11,11,05,19,3.70
2015,11,11,05,20,3.70
2015,11,11,05,21,3.80
2015,11,11,05,22,3.80
2015,11,11,05,23,3.90
2015,11,11,05,24,4.00
2015,11,11,05,25,4.10
2015,11,11,05,26,4.10
2015,11,11,05,27,4.20
2015,11,11,05,28,4.20
2015,11,11,05,29,4.20
2015,11,11,05,30,4.30
2015,11,11,05,31,4.30
2015,11,11,05,32,4.30
2015,11,11,05,33,4.40
2015,11,11,05,34,4.40
2015,11,11,05,35,4.50
2015,11,11,05,36,4.50
2015,11,11,05,37,4.50
2015,11,11,05,38,4.50
2015,11,11,05,39,4.50
2015,11,11,05,40,4.40
2015,11,11,05,41,4.40
2015,11,11,05,42,4.40
2015,11,11,05,43,4.30
2015,11,11,05,44,4.30
2015,11,11,05,45,4.30
2015,11,11,05,46,4.30
2015,11,11,05,47,4.20
2015,11,11,05,48,4.20
2015,11,11,05,49,4.10
2015,11,11,05,50,4.10
2015,11,11,05,51,4.10
2015,11,11,05,52,4.10
2015,11,11,05,53,4.10
2015,11,11,05,54,4.10
2015,11,11,05,55,4.10
2015,11,11,05,56,4.00
2015,11,11,05,57,4.00
2015,11,11,05,58,3.90
2015,11,11,05,59,3.90
2015,11,11,06,00,3.80
2015,11,11,06,01,3.80
2015,11,11,06,02,3.80
2015,11,11,06,03,3.70
2015,11,11,06,04,3.70
2015,11,11,06,05,3.60
2015,11,11,06,06,3.60
2015,11,11,06,07,3.60
2015,11,11,06,08,3.50
2015,11,11,06,09,3.50
2015,11,11,06,10,3.40
2015,11,11,06,11,3.40
2015,11,11,06,12,3.30
2015,11,11,06,13,3.30
2015,11,11,06,14,3.20
2015,11,11,06,15,3.20
2015,11,11,06,16,3.20
2015,11,11,06,17,3.20
2015,11,11,06,18,3.10
2015,11,11,06,19,3.20
2015,11,11,06,20,3.10
2015,11,11,06,21,3.10
2015,11,11,06,22,3.10
2015,11,11,06,23,3.10
2015,11,11,06,24,3.10
2015,11,11,06,25,3.10
2015,11,11,06,26,3.10
2015,11,11,06,27,3.10
2015,11,11,06,28,3.00
2015,11,11,06,29,3.00
2015,11,11,06,30,3.00
2015,11,11,06,31,3.00
2015,11,11,06,32,3.00
2015,11,11,06,33,2.90
2015,11,11,06,34,2.90
2015,11,11,06,35,2.90
2015,11,11,06,36,2.90
2015,11,11,06,37,2.80
2015,11,11,06,38,2.80
2015,11,11,06,39,2.80
2015,11,11,06,40,2.80
2015,11,11,06,41,2.80
2015,11,11,06,42,2.80
2015,11,11,06,43,2.80
2015,11,11,06,44,2.80
2015,11,11,06,45,2.80
2015,11,11,06,46,2.70
2015,11,11,06,47,2.70
2015,11,11,06,48,2.70
2015,11,11,06,49,2.70
2015,11,11,06,50,2.60
2015,11,11,06,51,2.60
2015,11,11,06,52,2.50
2015,11,11,06,53,2.50
2015,11,11,06,54,2.40
2015,11,11,06,55,2.40
2015,11,11,06,56,2.30
2015,11,11,06,57,2.30
2015,11,11,06,58,2.30
2015,11,11,06,59,2.30
2015,11,11,07,00,2.30
2015,11,11,07,01,2.30
2015,11,11,07,02,2.20
2015,11,11,07,03,2.20
2015,11,11,07,04,2.20
2015,11,11,07,05,2.20
2015,11,11,07,06,2.20
2015,11,11,07,07,2.20
2015,11,11,07,08,2.20
2015,11,11,07,09,2.20
2015,11,11,07,10,2.20
2015,11,11,07,11,2.20
2015,11,11,07,12,2.20
2015,11,11,07,13,2.20
2015,11,11,07,14,2.30
2015,11,11,07,15,2.30
2015,11,11,07,16,2.30
2015,11,11,07,17,2.30
2015,11,11,07,18,2.30
2015,11,11,07,19,2.30
2015,11,11,07,20,2.30
2015,11,11,07,21,2.30
2015,11,11,07,22,2.30
2015,11,11,07,23,2.30
2015,11,11,07,24,2.30
2015,11,11,07,25,2.30
2015,11,11,07,26,2.20
2015,11,11,07,27,2.20
2015,11,11,07,28,2.20
2015,11,11,07,29,2.20
2015,11,11,07,30,2.20
2015,11,11,07,31,2.10
2015,11,11,07,32,2.10
2015,11,11,07,33,2.00
2015,11,11,07,34,2.00
2015,11,11,07,35,1.90
2015,11,11,07,36,1.90
2015,11,11,07,37,1.90
2015,11,11,07,38,1.90
2015,11,11,07,39,1.90
2015,11,11,07,40,1.90
2015,11,11,07,41,1.90
2015,11,11,07,42,1.90
2015,11,11,07,43,1.90
2015,11,11,07,44,1.90
2015,11,11,07,45,1.90
2015,11,11,07,46,1.90
2015,11,11,07,47,2.00
2015,11,11,07,48,2.00
2015,11,11,07,49,2.00
2015,11,11,07,50,2.10
2015,11,11,07,51,2.10
2015,11,11,07,52,2.20
2015,11,11,07,53,2.20
2015,11,11,07,54,2.30
2015,11,11,07,55,2.30
2015,11,11,07,56,2.40
2015,11,11,07,57,2.40
2015,11,11,07,58,2.50
2015,11,11,07,59,2.50
2015,11,11,08,00,2.50
2015,11,11,08,01,2.40
2015,11,11,08,02,2.40
2015,11,11,08,03,2.40
2015,11,11,08,04,2.50
2015,11,11,08,05,2.50
2015,11,11,08,06,2.60
2015,11,11,08,07,2.60
2015,11,11,08,08,2.60
2015,11,11,08,09,2.60
2015,11,11,08,10,2.60
2015,11,11,08,11,2.70
2015,11,11,08,12,2.70
2015,11,11,08,13,2.80
2015,11,11,08,14,2.80
2015,11,11,08,15,2.90
2015,11,11,08,16,2.90
2015,11,11,08,17,2.90
2015,11,11,08,18,2.90
2015,11,11,08,19,2.90
2015,11,11,08,20,2.90
2015,11,11,08,21,2.90
2015,11,11,08,22,3.00
2015,11,11,08,23,3.00
2015,11,11,08,24,3.10
2015,11,11,08,25,3.20
2015,11,11,08,26,3.20
2015,11,11,08,27,3.30
2015,11,11,08,28,3.30
2015,11,11,08,29,3.40
2015,11,11,08,30,3.40
2015,11,11,08,31,3.50
2015,11,11,08,32,3.50
2015,11,11,08,33,3.60
2015,11,11,08,34,3.70
2015,11,11,08,35,3.70
2015,11,11,08,36,3.80
2015,11,11,08,37,3.90
2015,11,11,08,38,3.90
2015,11,11,08,39,3.90
2015,11,11,08,40,3.90
2015,11,11,08,41,3.90
2015,11,11,08,42,3.90
2015,11,11,08,43,3.90
2015,11,11,08,44,3.90
2015,11,11,08,45,3.90
2015,11,11,08,46,3.90
2015,11,11,08,47,3.90
2015,11,11,08,48,4.00
2015,11,11,08,49,4.00
2015,11,11,08,50,4.10
2015,11,11,08,51,4.10
2015,11,11,08,52,4.10
2015,11,11,08,53,4.20
2015,11,11,08,54,4.30
2015,11,11,08,55,4.40
2015,11,11,08,56,4.50
2015,11,11,08,57,4.60
2015,11,11,08,58,4.70
2015,11,11,08,59,4.70
2015,11,11,09,00,4.80
2015,11,11,09,01,4.90
2015,11,11,09,02,5.00
2015,11,11,09,03,5.10
2015,11,11,09,04,5.20
2015,11,11,09,05,5.20
2015,11,11,09,06,5.30
2015,11,11,09,07,5.30
2015,11,11,09,08,5.40
2015,11,11,09,09,5.50
2015,11,11,09,10,5.50
2015,11,11,09,11,5.60
2015,11,11,09,12,5.70
2015,11,11,09,13,5.80
2015,11,11,09,14,5.90
2015,11,11,09,15,6.00
2015,11,11,09,16,6.10
2015,11,11,09,17,6.20
2015,11,11,09,18,6.30
2015,11,11,09,19,6.30
2015,11,11,09,20,6.40
2015,11,11,09,21,6.50
2015,11,11,09,22,6.60
2015,11,11,09,23,6.70
2015,11,11,09,24,6.80
2015,11,11,09,25,7.00
2015,11,11,09,26,7.10
2015,11,11,09,27,7.20
2015,11,11,09,28,7.20
2015,11,11,09,29,7.30
2015,11,11,09,30,7.40
2015,11,11,09,31,7.50
2015,11,11,09,32,7.50
2015,11,11,09,33,7.60
2015,11,11,09,34,7.70
2015,11,11,09,35,7.70
2015,11,11,09,36,7.80
2015,11,11,09,37,7.80
2015,11,11,09,38,7.90
2015,11,11,09,39,7.90
2015,11,11,09,40,7.90
2015,11,11,09,41,8.00
2015,11,11,09,42,8.10
2015,11,11,09,43,8.10
2015,11,11,09,44,8.20
2015,11,11,09,45,8.20
2015,11,11,09,46,8.30
2015,11,11,09,47,8.40
2015,11,11,09,48,8.50
2015,11,11,09,49,8.60
2015,11,11,09,50,8.60
2015,11,11,09,51,8.70
2015,11,11,09,52,8.70
2015,11,11,09,53,8.70
2015,11,11,09,54,8.70
2015,11,11,09,55,8.70
2015,11,11,09,56,8.80
2015,11,11,09,57,8.80
2015,11,11,09,58,8.80
2015,11,11,09,59,8.90
2015,11,11,10,00,8.90
2015,11,11,10,01,9.00
2015,11,11,10,02,9.10
2015,11,11,10,03,9.20
2015,11,11,10,04,9.20
2015,11,11,10,05,9.30
2015,11,11,10,06,9.30
2015,11,11,10,07,9.40
2015,11,11,10,08,9.40
2015,11,11,10,09,9.50
2015,11,11,10,10,9.50
2015,11,11,10,11,9.60
2015,11,11,10,12,9.60
2015,11,11,10,13,9.70
2015,11,11,10,14,9.70
2015,11,11,10,15,9.80
2015,11,11,10,16,9.80
2015,11,11,10,17,9.90
2015,11,11,10,18,9.90
2015,11,11,10,19,10.00
2015,11,11,10,20,10.00
2015,11,11,10,21,10.10
2015,11,11,10,22,10.10
2015,11,11,10,23,10.20
2015,11,11,10,24,10.30
2015,11,11,10,25,10.40
2015,11,11,10,26,10.40
2015,11,11,10,27,10.50
2015,11,11,10,28,10.50
2015,11,11,10,29,10.40
2015,11,11,10,30,10.30
2015,11,11,10,31,10.20
2015,11,11,10,32,10.20
2015,11,11,10,33,10.20
2015,11,11,10,34,10.20
2015,11,11,10,35,10.10
2015,11,11,10,36,10.10
2015,11,11,10,37,10.10
2015,11,11,10,38,10.00
2015,11,11,10,39,10.00
2015,11,11,10,40,10.00
2015,11,11,10,41,9.90
2015,11,11,10,42,10.00
2015,11,11,10,43,10.00
2015,11,11,10,44,10.00
2015,11,11,10,45,10.10
2015,11,11,10,46,10.10
2015,11,11,10,47,10.20
2015,11,11,10,48,10.20
2015,11,11,10,49,10.20
2015,11,11,10,50,10.30
2015,11,11,10,51,10.30
2015,11,11,10,52,10.40
2015,11,11,10,53,10.50
2015,11,11,10,54,10.60
2015,11,11,10,55,10.60
2015,11,11,10,56,10.60
2015,11,11,10,57,10.60
2015,11,11,10,58,10.70
2015,11,11,10,59,10.70
2015,11,11,11,00,10.70
2015,11,11,11,01,10.70
2015,11,11,11,02,10.70
2015,11,11,11,03,10.70
2015,11,11,11,04,10.70
2015,11,11,11,05,10.70
2015,11,11,11,06,10.70
2015,11,11,11,07,10.70
2015,11,11,11,08,10.70
2015,11,11,11,09,10.70
2015,11,11,11,10,10.70
2015,11,11,11,11,10.70
2015,11,11,11,12,10.60
2015,11,11,11,13,10.60
2015,11,11,11,14,10.70
2015,11,11,11,15,10.70
2015,11,11,11,16,10.80
2015,11,11,11,17,10.80
2015,11,11,11,18,10.90
2015,11,11,11,19,10.90
2015,11,11,11,20,10.90
2015,11,11,11,21,10.80
2015,11,11,11,22,10.80
2015,11,11,11,23,10.80
2015,11,11,11,24,10.80
2015,11,11,11,25,10.80
2015,11,11,11,26,10.80
2015,11,11,11,27,10.80
2015,11,11,11,28,10.80
2015,11,11,11,29,10.80
2015,11,11,11,30,10.80
2015,11,11,11,31,10.80
2015,11,11,11,32,10.80
2015,11,11,11,33,10.70
2015,11,11,11,34,10.70
2015,11,11,11,35,10.70
2015,11,11,11,36,10.70
2015,11,11,11,37,10.60
2015,11,11,11,38,10.60
2015,11,11,11,39,10.60
2015,11,11,11,40,10.60
2015,11,11,11,41,10.60
2015,11,11,11,42,10.60
2015,11,11,11,43,10.60
2015,11,11,11,44,10.60
2015,11,11,11,45,10.60
2015,11,11,11,46,10.60
2015,11,11,11,47,10.60
2015,11,11,11,48,10.60
2015,11,11,11,49,10.50
2015,11,11,11,50,10.50
2015,11,11,11,51,10.40
2015,11,11,11,52,10.40
2015,11,11,11,53,10.30
2015,11,11,11,54,10.30
2015,11,11,11,55,10.30
2015,11,11,11,56,10.30
2015,11,11,11,57,10.20
2015,11,11,11,58,10.20
2015,11,11,11,59,10.20
2015,11,11,12,00,10.10
2015,11,11,12,01,10.10
2015,11,11,12,02,10.10
2015,11,11,12,03,10.00
2015,11,11,12,04,10.00
2015,11,11,12,05,10.00
2015,11,11,12,06,10.00
2015,11,11,12,07,9.90
2015,11,11,12,08,9.90
2015,11,11,12,09,9.90
2015,11,11,12,10,9.90
2015,11,11,12,11,9.90
2015,11,11,12,12,9.90
2015,11,11,12,13,9.90
2015,11,11,12,14,10.00
2015,11,11,12,15,10.00
2015,11,11,12,16,10.00
2015,11,11,12,17,10.00
2015,11,11,12,18,10.00
2015,11,11,12,19,10.00
2015,11,11,12,20,10.00
2015,11,11,12,21,10.10
2015,11,11,12,22,10.10
2015,11,11,12,23,10.10
2015,11,11,12,24,10.10
2015,11,11,12,25,10.10
2015,11,11,12,26,10.10
2015,11,11,12,27,10.00
2015,11,11,12,28,10.00
2015,11,11,12,29,10.00
2015,11,11,12,30,10.00
2015,11,11,12,31,10.00
2015,11,11,12,32,10.00
2015,11,11,12,33,10.00
2015,11,11,12,34,10.00
2015,11,11,12,35,9.90
2015,11,11,12,36,9.90
2015,11,11,12,37,9.90
2015,11,11,12,38,9.90
2015,11,11,12,39,9.90
2015,11,11,12,40,9.90
2015,11,11,12,41,9.90
2015,11,11,12,42,9.90
2015,11,11,12,43,9.90
2015,11,11,12,44,10.00
2015,11,11,12,45,10.00
2015,11,11,12,46,10.00
2015,11,11,12,47,10.10
2015,11,11,12,48,10.10
2015,11,11,12,49,10.00
2015,11,11,12,50,10.00
2015,11,11,12,51,10.00
2015,11,11,12,52,10.10
2015,11,11,12,53,10.10
2015,11,11,12,54,10.00
2015,11,11,12,55,10.10
2015,11,11,12,56,10.10
2015,11,11,12,57,10.10
2015,11,11,12,58,10.10
2015,11,11,12,59,10.10
2015,11,11,13,00,10.10
2015,11,11,13,01,10.10
2015,11,11,13,02,10.10
2015,11,11,13,03,10.10
2015,11,11,13,04,10.10
2015,11,11,13,05,10.10
2015,11,11,13,06,10.20
2015,11,11,13,07,10.20
2015,11,11,13,08,10.20
2015,11,11,13,09,10.20
2015,11,11,13,10,10.20
2015,11,11,13,11,10.20
2015,11,11,13,12,10.20
2015,11,11,13,13,10.20
2015,11,11,13,14,10.10
2015,11,11,13,15,10.20
2015,11,11,13,16,10.20
2015,11,11,13,17,10.10
2015,11,11,13,18,10.10
2015,11,11,13,19,10.10
2015,11,11,13,20,10.10
2015,11,11,13,21,10.10
2015,11,11,13,22,10.10
2015,11,11,13,23,10.10
2015,11,11,13,24,10.20
2015,11,11,13,25,10.20
2015,11,11,13,26,10.20
2015,11,11,13,27,10.20
2015,11,11,13,28,10.20
2015,11,11,13,29,10.20
2015,11,11,13,30,10.20
2015,11,11,13,31,10.20
2015,11,11,13,32,10.20
2015,11,11,13,33,10.20
2015,11,11,13,34,10.20
2015,11,11,13,35,10.20
2015,11,11,13,36,10.20
2015,11,11,13,37,10.20
2015,11,11,13,38,10.20
2015,11,11,13,39,10.20
2015,11,11,13,40,10.20
2015,11,11,13,41,10.20
2015,11,11,13,42,10.10
2015,11,11,13,43,10.10
2015,11,11,13,44,10.10
2015,11,11,13,45,10.10
2015,11,11,13,46,10.10
2015,11,11,13,47,10.10
2015,11,11,13,48,10.10
2015,11,11,13,49,10.10
2015,11,11,13,50,10.10
2015,11,11,13,51,10.10
2015,11,11,13,52,10.10
2015,11,11,13,53,10.10
2015,11,11,13,54,10.10
2015,11,11,13,55,10.10
2015,11,11,13,56,10.10
2015,11,11,13,57,10.10
2015,11,11,13,58,10.10
2015,11,11,13,59,10.10
2015,11,11,14,00,10.10
2015,11,11,14,01,10.10
2015,11,11,14,02,10.10
2015,11,11,14,03,10.10
2015,11,11,14,04,10.00
2015,11,11,14,05,10.00
2015,11,11,14,06,10.00
2015,11,11,14,07,10.00
2015,11,11,14,08,10.00
2015,11,11,14,09,10.00
2015,11,11,14,10,9.90
2015,11,11,14,11,9.90
2015,11,11,14,12,9.90
2015,11,11,14,13,9.90
2015,11,11,14,14,9.90
2015,11,11,14,15,9.90
2015,11,11,14,16,9.90
2015,11,11,14,17,9.90
2015,11,11,14,18,9.90
2015,11,11,14,19,9.80
2015,11,11,14,20,9.80
2015,11,11,14,21,9.80
2015,11,11,14,22,9.80
2015,11,11,14,23,9.80
2015,11,11,14,24,9.80
2015,11,11,14,25,9.90
2015,11,11,14,26,9.90
2015,11,11,14,27,9.90
2015,11,11,14,28,9.90
2015,11,11,14,29,9.90
2015,11,11,14,30,9.90
2015,11,11,14,31,9.90
2015,11,11,14,32,9.90
2015,11,11,14,33,9.90
2015,11,11,14,34,9.90
2015,11,11,14,35,9.90
2015,11,11,14,36,9.90
2015,11,11,14,37,9.90
2015,11,11,14,38,9.90
2015,11,11,14,39,9.90
2015,11,11,14,40,9.90
2015,11,11,14,41,9.80
2015,11,11,14,42,9.80
2015,11,11,14,43,9.80
2015,11,11,14,44,9.80
2015,11,11,14,45,9.80
2015,11,11,14,46,9.80
2015,11,11,14,47,9.80
2015,11,11,14,48,9.70
2015,11,11,14,49,9.70
2015,11,11,14,50,9.70
2015,11,11,14,51,9.70
2015,11,11,14,52,9.70
2015,11,11,14,53,9.70
2015,11,11,14,54,9.70
2015,11,11,14,55,9.70
2015,11,11,14,56,9.60
2015,11,11,14,57,9.60
2015,11,11,14,58,9.60
2015,11,11,14,59,9.60
2015,11,11,15,00,9.60
2015,11,11,15,01,9.60
2015,11,11,15,02,9.60
2015,11,11,15,03,9.60
2015,11,11,15,04,9.50
2015,11,11,15,05,9.50
2015,11,11,15,06,9.50
2015,11,11,15,07,9.50
2015,11,11,15,08,9.40
2015,11,11,15,09,9.40
2015,11,11,15,10,9.40
2015,11,11,15,11,9.40
2015,11,11,15,12,9.40
2015,11,11,15,13,9.30
2015,11,11,15,14,9.30
2015,11,11,15,15,9.30
2015,11,11,15,16,9.30
2015,11,11,15,17,9.30
2015,11,11,15,18,9.30
2015,11,11,15,19,9.30
2015,11,11,15,20,9.30
2015,11,11,15,21,9.30
2015,11,11,15,22,9.30
2015,11,11,15,23,9.30
2015,11,11,15,24,9.30
2015,11,11,15,25,9.30
2015,11,11,15,26,9.30
2015,11,11,15,27,9.30
2015,11,11,15,28,9.30
2015,11,11,15,29,9.30
2015,11,11,15,30,9.30
2015,11,11,15,31,9.30
2015,11,11,15,32,9.30
2015,11,11,15,33,9.20
2015,11,11,15,34,9.20
2015,11,11,15,35,9.20
2015,11,11,15,36,9.10
2015,11,11,15,37,9.10
2015,11,11,15,38,9.00
2015,11,11,15,39,8.90
2015,11,11,15,40,8.90
2015,11,11,15,41,8.80
2015,11,11,15,42,8.80
2015,11,11,15,43,8.80
2015,11,11,15,44,8.80
2015,11,11,15,45,8.80
2015,11,11,15,46,8.80
2015,11,11,15,47,8.70
2015,11,11,15,48,8.70
2015,11,11,15,49,8.70
2015,11,11,15,50,8.70
2015,11,11,15,51,8.70
2015,11,11,15,52,8.70
2015,11,11,15,53,8.60
2015,11,11,15,54,8.60
2015,11,11,15,55,8.50
2015,11,11,15,56,8.50
2015,11,11,15,57,8.50
2015,11,11,15,58,8.40
2015,11,11,15,59,8.40
2015,11,11,16,00,8.30
2015,11,11,16,01,8.30
2015,11,11,16,02,8.30
2015,11,11,16,03,8.20
2015,11,11,16,04,8.20
2015,11,11,16,05,8.20
2015,11,11,16,06,8.20
2015,11,11,16,07,8.10
2015,11,11,16,08,8.10
2015,11,11,16,09,8.00
2015,11,11,16,10,8.00
2015,11,11,16,11,7.90
2015,11,11,16,12,7.90
2015,11,11,16,13,7.90
2015,11,11,16,14,7.80
2015,11,11,16,15,7.80
2015,11,11,16,16,7.80
2015,11,11,16,17,7.70
2015,11,11,16,18,7.70
2015,11,11,16,19,7.60
2015,11,11,16,20,7.60
2015,11,11,16,21,7.60
2015,11,11,16,22,7.50
2015,11,11,16,23,7.50
2015,11,11,16,24,7.40
2015,11,11,16,25,7.40
2015,11,11,16,26,7.30
2015,11,11,16,27,7.20
2015,11,11,16,28,7.20
2015,11,11,16,29,7.20
2015,11,11,16,30,7.20
2015,11,11,16,31,7.10
2015,11,11,16,32,7.00
2015,11,11,16,33,7.00
2015,11,11,16,34,6.90
2015,11,11,16,35,6.90
2015,11,11,16,36,6.80
2015,11,11,16,37,6.80
2015,11,11,16,38,6.80
2015,11,11,16,39,6.80
2015,11,11,16,40,6.70
2015,11,11,16,41,6.70
2015,11,11,16,42,6.70
2015,11,11,16,43,6.70
2015,11,11,16,44,6.60
2015,11,11,16,45,6.60
2015,11,11,16,46,6.60
2015,11,11,16,47,6.50
2015,11,11,16,48,6.50
2015,11,11,16,49,6.50
2015,11,11,16,50,6.40
2015,11,11,16,51,6.40
2015,11,11,16,52,6.40
2015,11,11,16,53,6.30
2015,11,11,16,54,6.30
2015,11,11,16,55,6.30
2015,11,11,16,56,6.30
2015,11,11,16,57,6.20
2015,11,11,16,58,6.20
2015,11,11,16,59,6.20
2015,11,11,17,00,6.10
2015,11,11,17,01,6.10
2015,11,11,17,02,6.10
2015,11,11,17,03,6.00
2015,11,11,17,04,6.00
2015,11,11,17,05,5.90
2015,11,11,17,06,5.90
2015,11,11,17,07,5.90
2015,11,11,17,08,5.80
2015,11,11,17,09,5.80
2015,11,11,17,10,5.80
2015,11,11,17,11,5.80
2015,11,11,17,12,5.70
2015,11,11,17,13,5.70
2015,11,11,17,14,5.70
2015,11,11,17,15,5.70
2015,11,11,17,16,5.70
2015,11,11,17,17,5.70
2015,11,11,17,18,5.70
2015,11,11,17,19,5.60
2015,11,11,17,20,5.60
2015,11,11,17,21,5.60
2015,11,11,17,22,5.60
2015,11,11,17,23,5.60
2015,11,11,17,24,5.60
2015,11,11,17,25,5.60
2015,11,11,17,26,5.60
2015,11,11,17,27,5.50
2015,11,11,17,28,5.50
2015,11,11,17,29,5.50
2015,11,11,17,30,5.50
2015,11,11,17,31,5.50
2015,11,11,17,32,5.50
2015,11,11,17,33,5.40
2015,11,11,17,34,5.40
2015,11,11,17,35,5.40
2015,11,11,17,36,5.40
2015,11,11,17,37,5.40
2015,11,11,17,38,5.30
2015,11,11,17,39,5.30
2015,11,11,17,40,5.30
2015,11,11,17,41,5.30
2015,11,11,17,42,5.30
2015,11,11,17,43,5.20
2015,11,11,17,44,5.20
2015,11,11,17,45,5.20
2015,11,11,17,46,5.20
2015,11,11,17,47,5.20
2015,11,11,17,48,5.10
2015,11,11,17,49,5.10
2015,11,11,17,50,5.10
2015,11,11,17,51,5.10
2015,11,11,17,52,5.10
2015,11,11,17,53,5.10
2015,11,11,17,54,5.10
2015,11,11,17,55,5.10
2015,11,11,17,56,5.10
2015,11,11,17,57,5.10